loading
|
Showing default

SURCAL 150B, 2909

Orbit data source: Space-Track

SURCAL 150B, 2909 is a payload satellite owned by NRL (US) in LEO that was launched on Wed, 31 May 1967 UTC via a THOR SLV-2 AGENA D launch vehicle from the Air Force Western Test Range (AFWTR). Payloads include a variety of satellites, spacecraft, and rockets equipped with specific instruments for various scientific and technological missions. These include communications satellites like Starlink; space stations such as the ISS; scientific satellites like the Hubble; Earth observation satellites from companies like Planet Labs, Umbra, and HawkEye 360; GPS; miniature CubeSats for education and research; and military/defense satellites.

Loading next visibility...
Loading greatness...
SURCAL 150B details
Identifier
2909, 1967-053J
Orbit
LEO
Last TLE update10 hours ago
Origin
Flag of USNRL (US)
ManufacturerNRL
MissionOperational Defense Calibration
Bus & MotorSURCAL?, Unknown motor
Mass~5 kg wet, ~5 kg dry
Launch date (UTC)
1967-05-31 (57 years ago)
Launch vehicle
THOR SLV-2 AGENA D
Launch site
Air Force Western Test Range (AFWTR)
Object type
Payload
Rocket body
Debris
Shape & HBRBox, 0.2 m
Radar Cross Section0.060 m², Small (<0.1 m²)

Expand to show TLE details & history

TLE from 10 hours ago
0 SURCAL 150B
1  2909U 67053J   24277.14057014  .00070685  00000-0  74602-2 0  9992
2  2909  69.9380  43.2051 0003569 293.4815  66.5964 14.88850211987555
Epoch: 2024-10-03T03:22Z
Definitive object data (Epoch: 2024-10-03T03:22:25.26Z)
Latitude0.00006°
Longitude-19.72999°
Altitude602.947 km
Speed7.559 km/s
True Right ascension02h 52m 49s
True Declination0° 00' 00"
Sunlit
Object was in full shadow at TLE epoch
Predictive object data (real-time)
Latitude-27.7251°
Longitude-31.72516°
Altitude609.176 km
Speed7.555 km/s
Apparent Right ascension23h 02m 45s
Apparent Declination-48° 31' 15"
Sunlit
Object is in full shadow
Predictive observer data (real-time)
Local Sidereal Time06:45:21
Azimuth236.804° WSW
Elevation-44.479°
Doppler factor1
Orbital elements
Apogee601.981 km
Perigee597 km
Semi-major axis6,977.627 km
Eccentricity0.0003569
Inclination69.938°
RAAN43.2051°
Arg. of periapsis293.4815°
True anomaly66.63394°
Mean anomaly66.5964°
Eccentric anomaly66.61517°
Mean motion3.72376 °/min
BSTAR0.0074602
Period96.68 mins
No data available

SURCAL 150B Visibility forecast

Observer location: 39.9160978°, -105.1181434

SURCAL 150B is not visible in the next 10 days
Span
Click to sort rows by Start time (UTC) header in descending order
Start Az.
Max El. time (UTC)
Max El. Az.
Max El.
End time (UTC)
End Az.